,

(GMT )
Indian Head

Weather History for CWBD - October, 2013

Change the Weather History Date:

Wednesday, October 23, 2013

  Actual Average Record
Temperature  
Mean Temperature 32 °F -  
Max Temperature 41 °F - - ()
Min Temperature 19 °F - - ()
Degree Days  
Heating Degree Days 33    
Moisture  
Dew Point 28 °F    
Average Humidity 87    
Maximum Humidity 100    
Minimum Humidity 68    
Precipitation  
Precipitation 0.00 in - - ()
Sea Level Pressure  
Sea Level Pressure 30.27 in    
Wind  
Wind Speed 6 mph ()    
Max Wind Speed 17 mph    
Max Gust Speed -    
T = Trace of Precipitation, MM = Missing Value Source: Averaged Metar Reports

Daily Weather History Graph

Daily Weather History Graph

Search for Another Location

Airport or City:

Trip Planner

Search our weather history database for the weather conditions in past years. The results will help you decide how hot, cold, wet, or windy it might be!

Date:

Astronomy

Oct. 23, 2013 Rise Set
Actual Time 7:31 AM CST 5:45 PM CST
Civil Twilight 6:57 AM CST 6:19 PM CST
Nautical Twilight 6:19 AM CST 6:57 PM CST
Astronomical Twilight 5:41 AM CST 7:35 PM CST
Moon 9:03 PM CST (10/23) 12:06 PM CST (10/23)
Length of Visible Light 11h 22m
Length of Day
10h 14m
Waning Gibbous, 79% of the Moon is Illuminated
Oct 23
Waning Gibbous
Oct 26
Last Quarter
Nov 3
New
Nov 9
First Quarter
Nov 17
Full

Hourly Weather History & Observations

Time (CST) Temp. Windchill Dew Point Humidity Pressure Visibility Wind Dir Wind Speed Gust Speed Precip Events Conditions
12:00 AM 29.1 °F 25.4 °F - N/A% 30.16 in - NNW 3.5 mph - N/A   Unknown
1:00 AM 26.6 °F - - N/A% 30.17 in - NNW 2.3 mph - N/A   Unknown
2:00 AM 29.1 °F 25.4 °F - N/A% 30.17 in - WNW 3.5 mph - N/A   Unknown
3:00 AM 29.8 °F 24.9 °F - N/A% 30.18 in - West 4.6 mph - N/A   Unknown
4:00 AM 30.0 °F 24.1 °F - N/A% 30.18 in - West 5.8 mph - N/A   Unknown
5:00 AM 31.1 °F 24.5 °F - N/A% 30.20 in - NW 6.9 mph - N/A   Unknown
6:00 AM 32 °F - 32 °F 98% 30.22 in - NW 9.2 mph - -  
6:00 AM 31.6 °F 23.7 °F 31.6 °F 100% 30.22 in - NW 9.2 mph - N/A   Unknown
7:00 AM 32.0 °F 23.6 °F 32.0 °F 100% 30.24 in - NW 10.4 mph - N/A   Unknown
8:00 AM 25.3 °F 17.6 °F 24.8 °F 98% 30.27 in - NW 6.9 mph - N/A   Unknown
9:00 AM 28.4 °F 20.4 °F 27.5 °F 96% 30.28 in - NW 8.1 mph - N/A   Unknown
10:00 AM 30.9 °F 22.2 °F 29.1 °F 93% 30.29 in - NW 10.4 mph - N/A   Unknown
11:00 AM 32.9 °F 26.7 °F 30.2 °F 90% 30.30 in - NW 6.9 mph - N/A   Unknown
12:00 PM 35 °F - 31 °F 78% 30.32 in - NNW 9.2 mph - -  
12:00 PM 35.1 °F 27.9 °F 30.7 °F 84% 30.31 in - NNW 9.2 mph - N/A   Unknown
1:00 PM 37.4 °F 31.4 °F 31.6 °F 80% 30.31 in - NW 8.1 mph - N/A   Unknown
2:00 PM 39.7 °F 32.7 °F 32.2 °F 74% 30.30 in - NW 11.5 mph - N/A   Unknown
3:00 PM 40.5 °F 31.8 °F 31.3 °F 70% 30.30 in - NW 17.3 mph - N/A   Unknown
4:00 PM 40.6 °F 33.4 °F 30.7 °F 68% 30.31 in - NW 12.7 mph - N/A   Unknown
5:00 PM 37.9 °F 30.9 °F 29.5 °F 72% 30.31 in - NW 10.4 mph - N/A   Unknown
6:00 PM 31 °F - 27 °F 77% 30.32 in - NW 8.1 mph - -  
6:00 PM 30.6 °F 23.1 °F 26.6 °F 85% 30.32 in - NW 8.1 mph - N/A   Unknown
7:00 PM 27.9 °F 19.8 °F 25.5 °F 91% 30.33 in - West 8.1 mph - N/A   Unknown
8:00 PM 28.2 °F 18.9 °F 25.7 °F 90% 30.34 in - WNW 10.4 mph - N/A   Unknown
9:00 PM 25.3 °F 16.7 °F 23.5 °F 93% 30.35 in - West 8.1 mph - N/A   Unknown
10:00 PM 23.0 °F 14.7 °F 22.3 °F 97% 30.35 in - WNW 6.9 mph - N/A   Unknown
11:00 PM 19.8 °F 10.8 °F 19.2 °F 98% 30.35 in - WNW 6.9 mph - N/A   Unknown